Flag Weather past 2 weeks in Zhengzhou, Henan, China

Now
43 °F

Light rain. Fog.


Feels Like: 38 °F
Forecast: 46 / 53 °F
Wind: 8 mph from Northwest

Location: Zhengzhou Airport

Current Time: Nov 23, 2014 at 8:12:56 AM

Latest Report: Nov 23, 2014 at 7:00 AM


Visibility: 1 mi

Pressure: 30.27 "Hg

Humidity: 87%

Dew point: 39 °F

Location of ZhengzhouLocation

Historic Weather in Zhengzhou — Graph

°F

Zhengzhou temperature yesterday

Maximum temperature yesterday: 52 °F (at 3:00 AM)
Minimum temperature yesterday: 41 °F (at 11:00 PM)
Average temperature yesterday: 48 °F

Past Weeks' High & Low Weather Summary

 TemperatureHumidityPressure
High68 °F (Nov 11, 1:00 PM)100% (Nov 10, 3:00 AM)30.54 "Hg (Nov 10, 3:00 AM)
Low32 °F (Nov 17, 6:00 AM)12% (Nov 12, 3:00 PM)30.01 "Hg (Nov 20, 2:00 PM)
Average50 °F58%30.27 "Hg
* Reported Nov 8 7:00 AM — Nov 23 7:00 AM, Zhengzhou, Weather by CustomWeather, © 2014

Note: Actual official high and low records may vary slightly from our data, if they occured in-between our weather recording intervals... More about our weather records

Advertising

Zhengzhou weather history for previous 24 hours

 ConditionsComfort  
Time TempWeatherWind HumidityBarometerVisibility
7:00 AM
Nov 23
43 °FLight rain. Fog.8 mph87%30.27 "Hg1 mi
6:00 AM43 °FLight rain. Fog.8 mph81%30.24 "Hg1 mi
5:00 AM43 °FLight rain. Fog.8 mph81%30.24 "Hg1 mi
4:00 AM41 °FLight rain. Fog.8 mph93%30.24 "Hg1 mi
3:00 AM41 °FLight rain. Fog.8 mph87%30.24 "Hg1 mi
2:00 AM41 °FLight rain. Fog.8 mph87%30.27 "Hg1 mi
1:00 AM43 °FLight rain. Fog.8 mph87%30.30 "Hg1 mi
12:00 AM41 °FLight rain. Fog.10 mph93%30.30 "Hg1 mi
11:00 PM
Nov 22
41 °FLight rain. Fog.10 mph93%30.30 "Hg1 mi
10:00 PM43 °FLight rain. Fog.8 mph81%30.27 "Hg1 mi
9:00 PM43 °FLight rain. Fog.6 mph81%30.27 "Hg1 mi
8:00 PM45 °FLight rain. Fog.6 mph71%30.27 "Hg1 mi
7:00 PM45 °FLight rain. Overcast.3 mph71%30.27 "Hg1 mi
6:00 PM48 °FLight rain. Overcast.3 mph54%30.24 "Hg1 mi
5:00 PM48 °FLight rain. Overcast.6 mph50%30.21 "Hg1 mi
4:00 PM50 °FLight rain. Overcast.8 mph47%30.21 "Hg1 mi
3:00 PM50 °FHaze.13 mph54%30.21 "Hg1 mi
2:00 PM50 °FHaze.10 mph58%30.21 "Hg1 mi
1:00 PM52 °FHaze.13 mph62%30.24 "Hg1 mi
12:00 PM50 °FHaze.13 mph67%30.24 "Hg1 mi
11:00 AM52 °FHaze.10 mph67%30.27 "Hg1 mi
10:00 AM50 °FFog.10 mph71%30.27 "Hg1 mi
9:00 AM48 °FFog.10 mph76%30.24 "Hg1 mi
8:00 AM48 °FFog.8 mph76%30.24 "Hg1 mi
Weather by CustomWeather, © 2014

See weather overviewHow to use our weather pages